GFSNGP_700_rhum_081.txt.gz
RH
85 78 75 76 65 68 74 70 71 46 51 53 65 64 64 63 65 66 64 61 57 50 43 42 40 48 45 40 38 41 44 50 58 63 66 66 58 47 45 50 53 52 53 53
75 70 68 65 64 63 70 80 82 74 65 52 52 64 68 59 57 61 60 57 61 58 47 47 49 52 56 50 49 51 53 57 58 55 50 48 50 55 62 64 63 61 60 58
82 87 83 76 56 54 52 56 63 77 48 58 65 66 67 74 75 62 35 36 40 44 44 43 51 59 59 61 55 54 54 54 53 53 55 62 70 66 57 54 60 64 64 59
93 91 94 61 63 60 57 60 64 66 70 87 87 84 83 80 58 45 42 38 34 31 29 28 36 53 63 63 60 57 58 55 56 63 63 51 50 48 44 41 42 55 64 64
97 90 73 64 65 64 54 61 64 70 82 82 64 53 55 58 65 64 50 41 38 36 33 32 33 46 60 66 68 63 60 58 60 55 55 54 52 50 50 48 46 59 69 67
99 95 85 65 62 58 52 59 66 71 66 60 65 65 66 69 62 63 62 59 55 45 43 41 36 42 54 71 70 68 67 65 65 65 62 60 59 59 55 55 66 75 71 62
94 93 75 69 72 70 65 79 85 81 73 69 71 73 71 75 75 74 73 73 74 53 46 46 45 51 66 68 70 73 75 71 71 71 70 68 66 62 64 78 82 76 58 58
92 94 84 78 81 78 76 78 90 84 80 75 71 69 70 70 74 72 71 69 74 75 61 59 56 65 77 70 69 73 77 76 76 75 74 72 68 66 82 90 83 62 56 57
78 85 89 89 86 77 84 98 94 84 76 71 71 71 66 64 68 70 71 72 69 89 85 76 72 71 70 68 71 76 79 83 83 79 77 74 72 71 79 92 78 67 64 61
87 95 87 73 77 81 70 74 75 73 74 74 71 68 59 68 76 81 79 85 82 98 100 96 89 86 81 77 74 78 84 86 84 82 77 77 80 85 92 97 93 71 91 68
71 84 83 79 77 76 74 75 74 75 76 75 72 68 65 64 68 82 89 84 91 84 100 100 100 93 91 93 93 91 88 90 89 88 88 85 99 100 100 100 100 99 94 68
66 67 68 67 80 87 90 88 84 78 72 68 64 65 68 65 63 87 98 96 84 90 100 100 91 95 96 99 100 99 98 98 99 100 100 99 99 100 99 100 100 99 86 71
72 74 74 71 74 80 75 64 58 58 62 67 71 70 68 60 60 68 99 99 98 96 100 100 90 92 93 96 94 96 95 92 95 97 97 96 95 95 97 97 97 98 100 80
46 56 61 63 66 72 71 64 60 60 62 64 69 61 65 95 97 85 84 94 99 99 100 99 91 94 92 92 96 94 89 92 94 90 93 93 86 80 88 99 97 97 97 97
64 73 74 69 63 61 64 61 60 65 73 78 69 77 90 96 91 91 98 99 91 97 98 100 100 100 100 98 100 99 90 84 89 89 86 85 84 84 83 99 100 99 97 97
69 66 66 65 61 64 70 74 68 76 81 82 80 80 91 89 90 99 96 96 99 100 100 94 83 93 99 99 94 98 95 94 91 88 88 86 85 84 81 94 100 100 100 99
70 69 64 63 65 74 74 77 83 85 89 92 90 88 91 94 96 99 100 100 98 99 100 100 96 93 99 100 98 88 82 94 97 90 90 94 90 87 95 99 100 100 100 100
68 58 57 66 72 73 71 73 75 78 84 92 97 98 93 92 94 93 98 100 100 100 100 100 98 99 98 96 91 86 83 86 97 94 93 98 96 92 99 100 100 100 100 100
44 59 69 73 70 68 64 61 61 67 77 74 74 88 94 93 94 93 96 100 99 98 98 97 99 99 98 95 93 95 98 94 99 99 100 100 100 100 100 99 100 100 99 96
44 48 51 50 47 46 46 47 48 52 66 86 92 91 84 84 91 95 95 99 98 98 98 90 76 78 70 61 51 50 91 96 96 96 97 98 99 98 98 99 98 99 98 97
36 39 39 37 33 28 24 26 31 44 59 82 92 93 97 86 83 91 94 79 36 15 21 28 10 7 6 6 7 24 44 57 93 96 96 97 98 97 98 98 97 96 96 95
28 35 39 35 21 22 28 32 34 40 54 66 90 96 97 97 88 86 92 93 79 26 14 17 25 30 30 23 18 13 9 6 5 7 15 29 34 34 41 44 38 30 28 25
24 33 39 26 22 37 41 46 47 53 63 70 74 86 96 98 98 95 91 92 92 59 27 52 72 73 82 92 90 87 82 59 21 15 12 9 7 6 5 5 5 5 4 4
27 36 36 22 32 38 29 45 54 63 70 75 77 76 83 97 97 94 96 95 95 96 96 97 98 97 96 95 94 92 76 56 41 30 26 23 22 23 22 19 16 11 8 6
31 33 35 23 40 35 18 44 60 68 72 80 86 89 91 92 95 97 97 95 94 95 95 95 95 96 96 95 94 91 61 38 33 31 30 27 24 20 17 15 14 13 11 8
32 32 36 26 40 37 12 16 28 34 40 54 74 81 90 96 100 99 97 97 96 96 97 96 95 94 83 48 55 58 50 33 27 25 24 23 21 18 13 10 8 8 7 6
31 34 37 30 40 29 12 12 12 12 12 14 21 44 82 96 98 97 97 97 96 95 95 95 94 93 90 58 41 47 45 37 29 23 19 16 15 14 12 10 8 6 6 6

GFSNGP_700_rhum_084.txt.gz
RH
85 84 79 75 68 71 72 62 77 59 59 54 55 61 63 64 67 64 61 58 54 46 43 47 45 44 43 42 43 40 38 38 44 49 63 76 73 70 70 66 54 50 53 57
78 75 69 64 63 62 68 74 76 76 76 63 58 62 64 62 62 64 61 50 49 45 37 41 46 50 49 49 52 48 47 47 48 54 66 70 72 62 54 56 60 66 67 66
82 77 74 71 57 58 56 57 57 66 58 65 72 73 71 73 69 63 59 51 38 32 31 38 44 46 53 59 60 58 53 54 56 58 58 57 58 63 73 72 54 46 44 44
87 89 92 67 65 64 62 64 67 65 70 77 79 81 80 81 79 72 57 43 38 32 30 31 31 29 31 50 66 68 62 57 57 59 60 63 75 70 55 53 50 48 46 44
93 91 71 58 65 66 61 58 60 66 69 73 79 81 80 62 56 57 53 49 42 35 32 31 32 31 28 34 65 72 72 66 64 62 64 69 60 60 57 56 56 55 52 50
98 96 87 66 62 62 59 57 58 57 62 69 71 64 65 64 66 63 58 53 47 42 36 29 32 36 37 36 56 71 77 77 75 71 70 65 66 65 64 62 61 58 58 67
98 87 75 69 70 68 67 56 54 67 76 74 68 63 60 62 66 66 66 64 60 58 57 49 42 41 44 43 55 75 83 79 78 77 78 78 76 73 71 69 66 62 80 84
99 92 84 66 75 76 67 63 67 79 81 77 74 70 67 62 59 57 57 63 63 59 60 72 60 54 53 59 70 69 75 76 78 81 82 83 81 77 76 74 71 65 78 88
71 74 71 67 69 72 70 68 72 82 82 75 71 65 63 64 60 55 70 75 76 73 60 62 86 73 70 70 75 76 75 81 85 90 90 88 84 82 80 77 71 62 69 90
81 82 74 83 84 78 73 76 80 80 74 69 67 68 64 64 65 61 62 73 87 86 82 88 100 96 85 81 77 72 70 75 84 89 95 93 87 84 85 82 78 95 100 99
79 76 75 76 72 77 84 86 85 87 86 86 84 82 79 71 65 63 66 66 79 95 88 87 93 99 100 91 89 93 92 91 94 99 96 94 94 95 90 99 100 100 100 100
72 72 75 79 79 80 87 91 93 91 86 75 65 62 60 60 61 60 63 63 73 98 97 100 96 99 97 98 100 99 100 100 100 100 100 100 99 100 99 99 95 98 100 100
72 74 80 84 83 84 81 71 64 63 65 62 62 64 66 71 74 70 61 58 68 97 97 99 100 100 99 95 92 98 98 98 97 97 96 94 96 95 96 95 96 97 97 97
38 44 51 58 65 72 74 70 66 65 63 58 64 74 76 71 79 84 84 76 93 100 92 98 99 100 100 99 100 97 90 94 91 87 87 93 92 87 88 95 88 98 97 96
45 58 70 74 69 64 62 62 65 68 70 70 76 82 85 81 83 88 90 85 88 99 95 86 92 97 98 100 100 100 100 100 100 99 93 92 93 93 92 89 88 90 99 99
55 58 58 58 56 54 53 55 64 72 76 79 83 88 92 97 100 97 97 94 92 85 85 88 86 82 89 96 100 97 100 100 100 99 98 94 93 94 93 93 95 85 94 100
47 55 61 58 53 52 62 66 67 65 65 68 76 85 94 97 96 97 97 98 99 99 97 94 95 97 99 99 96 89 96 100 100 99 90 97 96 91 94 98 92 96 100 100
41 40 39 40 46 60 66 66 65 62 60 60 67 74 78 82 90 96 97 96 97 98 100 100 100 100 99 99 99 96 95 95 94 92 90 87 98 99 100 97 100 100 100 100
20 21 24 31 36 41 42 46 45 44 44 46 51 65 81 87 88 88 94 97 97 96 99 99 98 98 98 98 98 96 94 92 87 88 93 96 99 100 100 100 100 99 99 100
14 16 23 27 30 30 31 29 24 22 23 28 43 60 86 93 93 89 91 98 97 95 94 94 90 75 65 69 67 54 42 34 38 79 98 99 98 98 98 98 98 98 98 97
12 12 17 20 26 28 21 18 23 30 29 34 44 57 78 93 95 94 88 92 96 95 72 15 19 18 10 8 8 7 8 22 35 34 88 97 97 96 96 97 98 98 98 98
11 12 16 19 24 24 18 24 28 32 44 52 59 65 71 86 95 95 95 95 94 96 95 65 19 28 36 42 37 26 18 14 13 9 7 16 48 77 90 94 96 96 96 96
12 12 17 20 24 23 19 30 25 33 46 55 64 73 76 79 85 98 100 98 96 96 95 96 91 59 72 90 98 95 87 81 63 54 35 19 12 8 6 6 6 8 7 8
13 13 21 24 25 28 22 34 21 30 53 64 70 76 82 86 90 90 90 100 98 96 96 96 96 96 96 96 100 99 96 93 88 90 87 82 84 54 20 17 16 13 11 9
13 19 27 28 28 32 26 30 26 17 32 44 46 53 64 79 89 98 96 95 97 97 96 96 96 96 96 95 97 97 96 95 94 59 41 28 27 24 20 18 15 13 12 11
21 26 28 29 29 33 30 31 26 14 17 18 15 18 28 55 83 94 96 97 97 96 96 96 96 96 96 96 95 85 46 33 33 38 42 32 22 19 18 16 13 10 9 8
23 23 24 26 33 32 33 34 21 16 18 18 18 20 19 22 43 78 94 94 96 96 96 96 96 96 95 95 93 72 64 53 44 39 33 27 22 17 14 11 10 9 8 6

GFSNGP_700_rhum_087.txt.gz
RH
73 80 76 73 69 66 67 69 71 59 53 58 59 58 59 62 66 66 61 56 51 49 42 40 40 39 42 40 38 39 38 40 40 40 40 44 58 78 89 89 88 79 70 59
81 79 76 69 70 70 69 72 71 68 66 60 64 62 64 68 67 65 62 57 52 52 47 40 33 31 45 46 45 42 45 44 42 41 44 48 56 70 75 74 73 62 56 62
80 77 75 69 59 59 58 56 56 60 52 65 67 67 66 69 72 70 66 61 54 49 46 37 32 30 35 45 51 55 53 53 50 51 54 58 64 70 72 61 59 65 65 50
80 81 88 64 62 65 63 62 59 57 57 63 74 76 71 65 64 70 74 66 55 44 38 34 30 28 28 31 34 46 59 63 59 57 61 63 61 59 60 64 70 54 51 50
92 91 72 58 66 66 63 58 54 53 63 66 73 77 83 81 70 58 52 54 51 44 38 34 31 29 28 29 31 35 48 70 69 65 65 63 61 62 66 66 56 57 57 56
99 98 84 66 63 57 56 58 50 44 47 55 63 64 69 64 61 60 59 56 53 52 48 41 37 34 29 30 36 39 41 73 80 76 72 69 69 75 70 63 64 64 63 62
92 89 71 63 68 67 66 54 54 58 68 75 76 70 67 64 62 60 59 58 58 57 54 51 48 47 46 37 42 49 61 81 85 84 79 76 73 76 73 74 72 70 68 67
87 94 80 63 67 68 64 63 61 58 67 80 80 79 75 68 64 61 60 52 49 52 54 51 48 49 58 53 51 58 64 81 96 93 89 83 78 78 80 81 78 74 73 69
69 69 67 68 69 69 72 71 68 62 69 82 84 76 70 63 64 63 64 63 57 54 55 55 58 48 54 70 67 70 80 79 85 89 88 89 88 88 87 86 82 81 75 68
70 68 66 69 73 78 82 75 74 78 78 75 72 72 70 70 68 66 66 66 66 65 64 65 70 71 58 56 82 78 77 78 80 80 90 94 97 97 95 92 88 83 80 76
67 71 69 63 64 70 73 76 79 80 84 86 83 78 77 68 63 61 58 57 57 58 64 69 80 90 87 79 94 95 90 92 83 83 89 94 95 97 98 92 87 80 86 96
60 62 64 66 68 71 76 79 76 76 77 78 70 64 61 56 57 58 63 68 69 66 70 74 100 99 100 99 100 99 100 100 100 100 100 100 100 100 100 98 98 98 98 99
56 61 60 59 59 62 63 65 65 64 66 65 62 58 57 58 67 71 70 68 69 65 63 79 100 98 99 100 99 93 96 97 98 97 98 98 99 99 99 98 98 98 98 96
38 40 39 40 46 55 62 64 59 56 56 59 64 66 65 65 74 76 79 88 91 90 94 100 98 97 93 98 100 100 96 91 84 93 97 96 94 90 91 97 96 95 99 96
33 38 44 53 54 54 55 53 50 48 52 62 64 63 71 77 83 85 86 91 95 96 96 99 100 97 88 89 94 98 100 100 99 100 100 100 100 99 96 87 91 94 95 96
40 40 41 45 48 49 49 47 46 51 58 59 59 60 62 66 72 82 89 92 93 95 96 96 97 98 93 97 99 91 92 98 100 100 99 98 96 97 98 94 92 92 95 98
32 36 36 36 33 31 29 36 45 52 56 58 60 59 58 56 60 70 79 87 95 96 96 96 96 97 97 95 95 97 98 96 97 99 100 100 100 98 92 84 94 97 96 100
26 24 19 19 20 22 26 29 31 32 31 30 28 30 34 41 50 61 75 85 84 90 97 96 96 96 98 98 98 96 97 96 97 97 98 97 97 97 91 82 81 100 100 100
14 13 14 14 16 19 21 23 25 25 22 16 14 16 19 26 41 61 79 88 87 86 90 95 96 95 96 96 97 96 96 96 98 98 97 94 90 92 94 97 98 100 99 99
10 10 9 10 10 13 18 22 21 16 13 16 22 24 26 33 42 56 79 90 91 90 93 96 94 94 95 95 68 47 62 68 72 64 43 40 57 84 96 100 99 100 98 98
10 10 10 9 11 14 17 21 18 14 17 19 22 33 41 49 56 64 76 93 96 96 95 97 96 84 78 22 14 13 11 9 8 9 31 29 27 96 98 97 97 98 98 97
13 13 13 12 10 13 19 20 18 16 20 19 22 38 46 55 64 73 78 82 93 94 95 94 96 95 94 76 86 88 77 49 30 16 12 9 8 20 82 95 98 97 97 96
18 19 19 13 11 14 21 23 22 20 22 22 20 41 52 62 72 77 85 93 94 95 98 96 95 96 96 95 80 94 99 98 92 89 82 66 41 26 14 9 9 14 21 32
23 24 18 12 12 18 22 27 26 26 25 26 18 24 34 47 54 74 73 88 95 96 97 97 95 96 96 96 96 96 96 96 96 93 95 96 95 95 96 93 68 22 11 9
28 24 16 16 19 24 25 26 26 32 29 29 17 17 19 16 17 37 64 86 96 96 98 97 96 96 95 95 96 96 96 96 96 98 95 92 90 68 47 24 14 15 14 10
27 19 18 20 21 22 23 25 29 35 33 30 17 16 16 18 20 20 25 60 92 97 97 96 96 95 96 96 96 96 96 95 96 95 88 45 57 79 76 34 15 14 12 11
19 19 20 21 24 23 23 26 26 28 32 31 23 24 27 29 28 26 22 22 39 71 93 97 96 96 96 96 95 95 95 96 96 95 88 73 59 52 44 35 26 16 10 8

GFSNGP_700_rhum_090.txt.gz
RH
79 81 79 73 69 70 69 69 66 56 54 55 56 54 54 55 56 58 60 57 54 52 50 46 41 41 39 37 37 36 35 38 38 36 38 41 41 41 47 57 84 92 90 83
87 84 78 73 74 69 67 67 66 67 58 59 61 63 63 60 61 64 66 62 58 56 53 46 42 37 37 32 31 40 40 38 38 36 41 38 37 39 47 60 77 88 90 84
75 75 70 62 61 62 60 57 55 56 50 57 63 69 72 73 70 66 66 67 65 59 52 44 41 38 35 30 29 35 47 49 50 50 48 45 42 44 49 56 64 68 70 60
72 72 78 63 64 62 59 59 57 53 51 51 53 55 60 67 70 71 70 66 60 54 48 42 38 34 31 29 29 30 32 37 48 58 58 54 56 62 68 70 69 61 57 62
89 83 65 59 62 66 64 59 58 55 55 59 65 68 68 75 83 80 66 56 52 49 47 45 43 40 36 31 30 30 32 34 38 58 70 65 64 63 65 62 61 66 73 59
98 93 78 67 66 66 58 57 57 55 52 64 76 78 82 73 68 66 64 61 60 59 57 53 50 47 44 40 37 35 37 45 51 65 79 76 70 68 66 66 71 80 64 64
80 80 73 68 68 65 63 63 60 60 63 71 78 76 76 74 73 69 66 64 62 57 51 48 47 46 45 44 45 50 49 56 59 59 77 86 81 75 72 70 77 78 70 75
83 80 76 56 59 73 67 65 66 63 61 70 82 85 87 86 78 70 65 64 66 64 61 57 53 50 47 44 42 57 60 70 75 90 100 95 93 86 84 82 83 82 87 87
64 62 60 57 57 62 67 66 68 71 66 65 66 69 74 74 73 71 72 71 70 70 71 71 67 64 63 64 58 66 76 81 100 100 100 100 100 97 98 96 95 93 94 90
64 56 56 55 56 60 63 66 71 70 63 65 67 66 63 64 65 63 61 58 57 56 56 57 59 64 70 77 85 73 67 94 85 87 99 100 99 95 98 100 99 97 98 94
59 53 58 56 59 60 60 59 62 64 63 65 62 59 56 54 53 55 54 51 53 56 60 65 69 66 72 96 100 100 90 95 100 100 95 92 94 97 100 99 99 99 95 88
51 52 55 54 61 63 65 62 59 60 63 58 55 56 53 51 48 49 51 52 58 62 64 68 71 71 77 95 100 99 87 89 100 100 100 100 100 100 100 100 100 99 90 89
44 44 49 52 52 54 50 50 50 54 56 54 49 45 42 44 48 50 56 60 64 67 70 71 76 67 64 81 95 96 98 75 92 94 100 98 98 98 99 98 99 100 99 99
25 27 30 30 33 38 45 50 53 50 45 43 43 42 45 50 51 54 56 61 66 73 80 84 91 95 96 96 85 96 93 98 91 91 92 96 97 98 97 97 97 96 97 97
23 24 28 32 34 38 39 39 40 39 38 37 38 44 52 53 54 54 55 55 56 66 80 90 93 95 95 95 96 94 93 97 96 97 100 100 100 99 98 99 99 98 98 92
22 23 26 27 26 27 27 26 24 22 28 34 37 44 46 50 49 50 51 50 49 55 66 76 90 96 95 95 95 96 96 98 97 96 97 99 100 100 100 100 93 92 96 100
20 20 20 21 18 17 15 13 15 17 17 18 19 21 22 22 22 21 24 34 46 59 68 72 78 86 94 94 95 95 96 96 99 99 94 92 96 97 100 100 99 100 98 99
14 15 13 10 9 10 10 10 11 10 11 12 14 15 14 16 18 19 23 32 48 73 82 85 84 84 88 92 95 95 95 96 96 96 96 96 98 99 98 97 97 97 97 96
10 8 8 8 8 8 8 9 10 11 13 12 12 12 17 22 26 32 36 42 51 66 86 90 87 84 84 85 92 96 96 96 96 97 97 97 96 96 96 97 93 96 97 98
8 9 9 9 9 8 9 9 9 12 16 13 13 15 20 21 28 35 44 54 65 63 77 84 90 89 87 88 84 88 61 66 62 65 62 75 80 57 64 46 52 74 94 99
9 10 12 13 13 14 15 12 11 13 18 19 18 19 22 19 28 43 55 64 76 71 77 80 85 90 94 92 94 75 63 72 46 24 12 9 9 21 25 30 54 98 98 99
12 14 18 18 19 21 17 13 13 17 20 23 23 23 24 22 23 43 59 60 68 73 83 88 89 88 95 96 94 94 92 95 95 94 72 50 22 12 9 9 52 97 97 97
18 21 22 23 25 24 17 15 18 23 22 25 28 28 27 25 19 25 32 39 41 56 77 87 91 92 90 96 97 95 95 94 94 95 96 94 96 76 60 35 17 12 18 44
25 27 27 28 29 23 17 20 19 23 22 24 30 32 32 26 21 18 16 17 20 35 70 87 91 94 94 95 96 96 96 96 96 95 96 95 95 96 96 94 94 92 81 46
34 30 32 32 24 18 16 16 17 22 23 25 31 37 35 25 18 19 21 22 22 24 54 82 91 94 95 95 92 94 96 96 96 96 96 96 96 96 95 80 69 56 39 48
36 36 29 21 17 16 17 19 19 22 24 25 28 33 32 26 23 27 29 29 27 23 24 44 76 89 93 94 93 97 97 96 96 96 95 95 94 82 80 78 81 91 83 50
30 24 21 20 20 20 21 22 22 24 27 27 28 34 35 28 31 37 41 44 38 34 29 24 23 27 53 93 96 97 96 95 96 96 96 96 96 96 96 93 78 57 49 34

GFSNGP_700_rhum_093.txt.gz
RH
79 82 78 72 64 64 63 63 57 56 58 59 58 58 56 58 59 59 59 58 56 54 52 50 50 48 42 38 36 36 34 33 33 34 34 34 32 31 39 42 44 56 80 87
78 77 73 72 71 68 67 67 65 62 60 64 66 68 68 66 62 60 60 60 60 59 54 51 47 46 42 38 37 34 31 30 37 37 38 39 38 36 37 40 41 47 54 68
78 73 67 66 66 66 64 59 56 57 60 63 64 64 68 71 73 73 73 70 67 65 61 56 50 44 41 39 37 34 31 29 34 46 46 47 48 48 46 45 46 52 59 80
72 69 73 69 65 64 60 61 60 61 61 59 60 62 63 66 70 73 76 78 76 66 56 49 44 40 38 34 32 31 31 31 31 37 46 56 61 60 57 56 59 68 76 77
82 70 65 63 63 64 64 64 60 58 55 57 64 69 70 73 73 76 77 67 59 56 55 52 49 47 44 44 42 37 34 34 34 36 39 46 67 69 64 65 76 74 74 69
72 79 65 62 61 64 64 58 57 57 50 50 62 71 74 74 70 66 64 63 62 61 58 54 51 47 45 45 44 44 43 47 45 47 54 56 67 76 78 79 75 69 66 68
80 79 66 64 64 62 62 57 48 49 50 50 52 59 64 70 72 74 75 72 67 60 58 57 55 51 46 42 40 40 40 43 54 56 72 81 85 96 94 87 78 74 74 77
85 77 66 54 60 66 59 57 57 56 55 55 54 55 58 66 76 77 75 73 70 65 62 60 58 55 56 54 52 51 51 51 67 67 80 89 92 100 100 99 94 88 85 86
60 56 53 53 53 57 65 63 65 65 66 67 65 64 68 69 69 64 62 61 59 57 56 56 55 55 53 54 58 61 62 60 64 81 97 98 99 97 99 99 99 99 98 96
56 51 50 49 50 50 58 58 57 59 62 64 58 56 56 55 53 50 50 50 50 51 50 48 50 54 56 58 56 59 70 86 80 80 92 98 98 98 99 98 99 99 98 98
47 45 45 46 46 50 51 48 49 53 54 55 55 55 53 50 50 50 46 41 42 43 45 50 56 58 60 63 67 66 67 98 98 89 88 100 99 95 98 98 97 100 98 98
39 41 41 42 43 48 54 56 56 51 49 48 48 51 50 45 42 40 38 39 44 51 55 58 60 65 67 66 64 64 68 93 94 99 93 89 100 100 100 99 100 100 99 98
37 37 38 36 36 37 38 36 36 41 48 50 46 44 43 42 42 44 47 47 50 52 53 57 66 74 77 81 83 87 87 72 93 97 98 81 94 98 98 97 95 96 98 100
21 25 23 22 24 25 28 30 33 35 33 35 33 30 28 34 40 42 46 47 49 51 52 52 53 57 71 82 88 90 96 96 93 96 95 98 98 99 97 97 97 97 97 97
12 15 17 18 18 19 20 21 23 23 21 17 14 18 18 21 23 25 24 20 17 22 26 32 39 48 61 74 82 93 95 96 96 95 96 95 97 98 99 98 97 97 97 97
9 11 13 14 14 13 13 14 13 13 11 11 12 12 14 14 15 14 13 13 13 15 18 26 37 52 69 78 79 82 94 96 96 96 95 96 98 94 97 99 100 100 86 87
7 9 11 11 10 10 10 8 8 9 10 10 10 12 13 12 10 12 15 16 21 24 26 30 40 58 73 82 80 78 80 91 95 96 96 95 96 96 96 96 96 95 89 90
8 8 9 9 8 8 8 8 8 8 8 8 9 10 11 11 10 14 17 17 28 36 42 47 53 70 83 85 82 75 76 80 92 96 96 96 96 96 96 96 97 95 92 96
9 8 8 9 9 9 9 10 10 10 11 12 11 12 13 13 14 18 18 17 37 45 56 59 65 71 79 87 89 82 81 83 77 89 94 96 96 95 95 96 97 96 96 96
8 8 8 10 10 13 14 15 16 18 16 14 14 14 14 19 20 20 21 20 41 49 57 69 73 78 82 84 90 91 88 89 55 42 27 24 72 95 95 96 96 97 90 60
8 8 10 12 15 19 19 21 23 23 20 15 15 17 17 22 25 25 25 22 40 39 53 64 68 77 86 89 94 94 95 95 85 88 98 78 48 23 48 28 15 23 36 36
12 12 14 17 22 23 24 26 28 28 20 17 18 20 18 22 30 32 29 22 23 27 27 30 41 66 89 92 94 96 98 98 97 96 94 96 96 86 55 19 11 11 11 66
18 19 22 25 29 28 29 31 30 22 18 16 17 18 20 25 34 34 30 25 17 18 22 29 46 75 92 96 96 97 97 96 96 96 96 96 95 96 96 80 54 37 19 14
26 28 33 36 32 33 34 28 20 18 16 16 18 20 21 25 33 36 30 21 22 24 24 25 42 73 92 95 97 98 97 96 96 96 96 97 96 95 96 96 96 94 88 87
37 41 38 36 36 32 23 19 18 18 18 19 20 24 26 28 32 36 27 26 29 31 31 28 25 30 53 67 89 95 90 91 95 96 96 96 96 96 96 96 96 95 94 54
43 38 37 33 26 22 21 22 22 23 23 23 26 31 33 34 36 36 30 33 41 46 43 41 41 32 26 29 57 88 94 96 96 97 97 97 97 97 96 95 95 87 85 87
38 34 29 26 25 27 29 30 29 28 30 31 32 40 43 43 41 40 34 42 56 62 63 69 78 85 72 38 28 45 90 96 97 96 96 96 97 96 96 96 96 96 90 72

GFSNGP_700_rhum_096.txt.gz
RH
78 78 73 67 63 60 52 56 64 68 68 68 63 63 62 59 56 57 57 56 54 51 49 47 45 45 44 43 41 36 34 34 35 36 37 38 38 38 36 35 34 43 46 48
78 74 70 67 63 63 59 58 61 63 67 66 67 68 67 66 65 63 60 58 56 55 52 48 44 40 38 38 38 36 34 34 33 31 30 34 38 39 40 41 40 41 45 46
70 63 61 63 63 62 60 58 60 69 63 66 68 69 69 68 66 65 64 66 67 64 61 57 54 51 47 42 39 37 35 35 34 32 30 31 43 46 47 46 44 44 45 48
67 62 64 60 59 61 61 57 58 57 55 56 59 59 56 58 60 59 58 58 60 62 60 55 49 44 42 40 37 35 34 32 31 30 30 30 36 53 62 62 60 57 54 62
79 74 62 58 57 59 55 52 50 51 52 53 52 52 54 57 59 59 59 60 56 50 48 47 48 49 48 44 41 38 36 35 34 33 35 35 40 48 55 69 72 67 66 70
70 71 57 62 59 63 62 57 50 48 47 44 45 51 56 60 62 62 58 58 60 64 65 62 57 53 50 49 48 45 40 37 36 36 38 42 44 54 63 74 82 79 79 82
80 75 59 57 58 61 58 54 48 47 45 46 48 51 54 56 58 62 64 66 67 67 65 60 55 51 49 49 49 48 46 45 44 42 37 49 53 59 75 77 92 93 94 92
86 82 65 52 59 59 53 48 49 48 49 52 54 54 54 57 56 59 60 60 58 57 55 54 53 51 48 47 45 45 47 51 52 53 52 47 64 75 86 92 100 100 99 95
68 67 42 47 48 48 49 55 55 53 54 56 60 60 60 57 55 52 52 49 47 45 44 46 47 46 45 44 46 49 49 49 52 55 54 58 56 79 90 98 89 99 98 98
51 43 44 46 42 41 44 50 52 51 51 51 52 53 54 54 50 48 44 42 39 34 32 31 30 33 39 41 47 51 54 56 58 61 66 64 66 63 97 100 100 100 97 94
41 41 40 38 38 41 43 45 44 45 47 49 49 49 48 46 43 42 38 34 31 28 28 32 34 39 46 50 54 57 60 60 57 65 72 94 97 67 74 98 99 98 97 100
31 34 34 36 37 38 40 44 42 41 39 37 37 40 42 39 33 30 29 28 28 29 28 33 37 45 48 49 54 61 68 74 72 62 73 83 92 96 84 97 98 94 98 96
32 30 30 29 31 32 31 29 26 26 23 21 22 25 24 23 20 24 26 27 26 22 23 23 24 28 35 42 45 50 60 75 81 86 91 85 89 96 97 100 97 98 91 90
16 18 17 19 18 18 18 18 19 19 17 16 16 15 13 13 18 16 14 13 11 11 11 12 12 14 16 21 31 43 55 68 78 92 94 95 96 93 96 96 96 97 98 98
7 9 11 12 12 12 13 13 12 11 11 10 10 9 10 10 10 10 10 9 9 10 11 12 14 15 16 22 36 53 67 73 76 83 95 96 96 96 96 97 97 96 97 97
6 6 8 9 10 10 10 9 9 9 9 9 9 9 9 9 9 10 10 10 10 12 13 17 26 28 31 36 41 63 77 76 75 76 82 96 97 96 96 96 96 97 96 97
5 6 7 8 9 8 9 9 9 8 8 8 8 9 10 11 12 12 13 14 14 14 17 22 31 37 47 48 56 64 75 76 70 66 70 79 94 96 96 96 96 96 96 97
5 6 7 8 9 9 10 10 10 10 10 11 12 15 17 16 15 14 16 16 19 20 21 19 43 56 56 59 63 68 73 76 77 73 70 72 85 97 96 96 96 96 96 96
7 7 8 8 9 10 10 10 12 14 16 17 20 22 22 19 17 17 17 21 25 24 26 31 52 55 63 71 74 79 84 87 90 89 82 61 43 53 83 95 96 96 96 96
9 10 9 9 9 10 11 14 18 20 21 24 26 28 24 19 20 18 19 23 30 27 27 27 29 45 55 67 81 90 95 94 92 95 96 84 86 50 30 59 93 96 96 96
13 11 9 9 10 11 15 21 24 26 27 30 31 25 20 17 18 18 20 24 37 31 22 15 15 24 38 63 84 98 100 99 96 94 95 96 93 97 89 58 49 95 82 92
14 13 12 11 13 17 23 28 30 30 33 31 24 18 16 16 19 21 26 31 31 27 20 17 20 27 38 61 88 100 100 100 98 97 96 98 96 97 96 96 82 28 22 14
19 18 16 18 21 26 34 34 34 33 27 21 18 18 18 20 22 25 26 31 31 28 22 23 26 26 29 49 83 95 97 98 98 98 98 96 96 96 96 96 95 63 39 20
23 23 24 28 34 39 36 35 30 24 22 21 22 23 24 25 28 30 30 31 32 30 26 29 34 32 27 26 39 46 71 95 99 98 97 96 97 96 96 96 96 96 95 77
29 31 36 40 39 35 32 27 25 26 27 29 29 29 30 31 32 36 40 38 38 30 31 41 45 46 50 40 29 33 57 88 95 94 96 96 96 98 97 96 96 96 96 96
39 41 41 37 34 30 28 29 32 32 33 34 33 33 32 32 35 40 46 46 44 33 39 54 60 67 76 84 67 34 34 74 95 95 96 96 96 96 96 97 97 97 96 97
42 38 34 32 30 31 33 34 34 32 28 22 19 21 25 30 35 39 45 49 50 40 42 63 69 73 78 78 85 89 55 37 63 96 97 96 96 96 96 97 96 96 97 96

GFSNGP_700_rhum_099.txt.gz
RH
79 72 67 69 73 62 56 61 63 62 67 71 76 76 63 60 58 56 55 54 52 50 50 47 46 43 40 37 36 35 35 36 35 33 32 32 33 33 35 37 37 36 37 37
79 62 59 58 62 68 72 66 62 64 71 77 69 62 63 59 57 56 55 55 54 52 50 47 45 42 40 38 36 34 33 33 33 32 31 31 32 31 32 35 36 37 38 40
76 58 72 62 62 60 55 68 68 64 71 59 60 60 59 61 64 63 60 59 56 51 47 46 44 43 44 44 43 40 38 36 34 32 31 31 33 32 31 32 39 44 47 47
73 57 65 58 58 55 56 53 55 60 58 61 60 58 61 60 61 60 59 58 55 52 53 50 47 44 42 41 41 39 37 35 33 31 29 28 28 30 31 32 36 51 54 56
74 58 56 51 52 52 53 49 50 49 50 50 52 52 50 52 54 56 57 59 63 62 57 55 56 55 54 49 41 39 37 38 40 38 36 35 34 34 32 33 37 46 55 64
76 68 54 62 46 49 50 56 45 47 48 48 50 54 69 58 59 61 58 56 56 58 57 54 58 57 56 54 53 50 48 46 42 41 42 40 36 34 38 47 49 59 59 66
68 68 58 42 45 48 56 57 45 47 47 46 45 47 56 39 40 40 41 41 41 42 40 40 39 38 38 38 37 39 41 43 45 47 48 49 48 47 44 50 55 67 83 94
73 72 62 45 46 51 49 42 43 43 39 36 36 38 40 42 46 49 47 43 38 36 36 36 32 31 28 26 26 30 35 40 42 42 46 50 52 53 53 52 68 79 94 100
75 64 56 37 47 46 45 43 45 44 43 42 44 44 47 46 45 41 39 38 36 32 27 25 22 15 13 12 15 19 27 34 40 46 49 50 54 56 58 62 63 91 100 100
45 35 35 34 38 37 36 36 39 37 41 39 36 38 37 38 35 35 32 30 28 23 19 17 15 13 11 11 12 18 26 35 42 46 51 54 54 59 64 66 78 78 100 99
34 35 34 33 35 36 34 34 36 35 37 38 36 32 31 31 28 25 20 17 16 14 13 13 12 12 14 16 16 21 30 32 42 50 58 62 64 59 64 73 83 86 91 94
40 28 30 27 30 29 30 31 30 30 30 30 26 26 26 23 18 14 10 9 8 8 8 8 8 8 8 9 9 12 13 21 23 32 39 54 67 71 77 77 91 96 96 98
32 28 25 24 24 25 24 23 23 21 21 20 20 16 11 10 9 8 8 8 8 8 8 8 8 8 8 9 9 10 11 12 15 22 32 46 59 71 75 82 78 83 95 96
15 19 18 18 19 19 16 15 15 14 14 11 9 8 8 8 8 8 9 9 9 9 10 10 9 10 11 11 14 17 17 20 23 33 47 55 61 68 79 82 81 90 96 97
6 8 8 13 12 11 12 11 11 10 8 9 8 9 8 9 9 10 10 11 13 14 12 11 12 13 13 21 25 23 23 30 38 52 65 67 67 69 73 83 90 88 96 96
6 6 6 7 8 8 9 10 10 10 9 10 10 10 10 11 13 15 19 21 20 19 14 13 15 17 24 27 26 32 42 48 54 60 71 72 68 64 68 78 92 94 95 96
6 6 6 7 9 11 12 10 10 10 11 11 11 13 15 16 19 22 24 25 22 17 17 18 20 22 22 24 31 48 58 64 70 72 72 71 73 70 67 75 92 96 96 96
5 6 6 7 7 9 11 11 10 11 11 12 16 19 20 22 25 28 28 25 19 16 21 23 25 22 20 24 42 60 69 75 82 87 87 84 83 83 72 48 55 92 98 96
5 6 6 7 8 8 10 11 10 10 12 16 22 23 25 27 30 29 24 19 17 18 23 24 25 22 20 26 47 61 75 82 89 91 91 93 93 93 90 82 43 32 76 96
7 8 8 9 9 10 9 9 9 12 16 23 27 28 29 30 28 22 18 16 21 21 22 24 25 23 20 22 32 44 60 76 86 91 90 92 96 96 95 96 96 74 44 63
10 11 11 12 12 10 10 10 12 17 25 31 31 31 30 24 20 18 19 21 23 24 25 27 28 26 22 24 28 31 48 67 85 94 94 93 94 96 97 94 96 97 84 62
15 16 15 15 14 13 12 14 18 27 34 32 32 27 23 22 22 23 25 27 28 30 29 30 32 28 25 27 29 28 35 60 77 84 94 98 96 95 96 98 98 97 98 87
11 12 15 18 18 17 18 23 32 36 33 30 25 24 25 27 29 30 31 33 32 34 36 36 35 28 30 36 35 29 27 30 36 66 93 98 97 95 95 97 97 98 97 86
10 13 19 22 23 24 29 38 37 33 28 26 27 29 31 32 32 31 28 26 30 36 40 42 37 31 41 47 53 58 39 31 38 74 95 96 96 96 96 96 97 97 95 96
12 17 24 28 31 37 40 37 32 28 28 30 32 32 30 25 18 17 17 19 26 34 42 48 41 36 50 60 69 79 77 43 37 76 90 92 95 96 96 95 95 97 97 97
17 26 32 37 42 41 35 31 29 30 31 31 29 19 13 12 11 12 13 16 19 25 36 48 48 40 58 69 76 77 82 90 57 46 91 96 96 96 96 96 97 97 97 98
27 35 42 43 40 36 31 30 31 30 27 18 10 8 9 15 20 23 25 28 30 29 28 37 49 46 58 74 79 82 80 81 94 75 58 98 96 97 96 96 96 97 97 97

GFSNGP_700_rhum_102.txt.gz
RH
74 74 67 77 62 60 61 63 74 78 81 83 78 63 61 62 61 59 56 55 54 53 51 49 48 46 43 41 39 38 36 34 33 32 31 31 31 30 30 33 34 34 34 35
65 64 66 62 65 63 60 63 67 70 74 77 73 60 60 59 59 54 53 53 53 52 52 50 48 44 41 39 38 36 38 39 38 38 37 36 35 32 30 31 32 32 34 38
61 54 65 64 54 56 66 65 67 68 69 67 60 58 57 58 56 60 62 60 58 56 50 44 41 41 40 40 38 38 36 35 34 34 34 33 33 32 31 31 32 33 33 36
60 61 78 59 54 52 56 65 67 68 60 61 56 55 59 59 56 57 56 50 50 54 54 49 46 42 40 37 35 32 32 35 34 33 34 34 35 36 35 34 35 36 35 37
78 59 51 45 47 50 49 51 51 51 54 53 54 59 61 59 54 52 49 47 47 45 37 32 27 30 30 29 25 23 21 23 24 28 30 31 32 34 36 36 34 34 41 47
72 71 63 58 45 44 47 49 47 50 49 49 52 54 53 64 62 59 54 48 44 36 37 33 32 31 31 28 21 17 16 16 16 15 19 25 31 33 35 39 42 42 40 48
75 70 59 50 42 44 45 52 48 42 45 46 46 48 57 52 41 39 40 43 44 43 37 35 35 31 25 18 11 10 10 11 12 16 23 31 32 35 36 34 36 39 45 46
74 72 69 45 44 46 45 44 37 40 43 40 37 35 35 39 38 39 41 41 36 34 33 26 19 15 14 11 9 9 9 9 11 13 15 20 27 34 37 38 42 46 46 51
69 65 57 52 36 43 42 39 38 41 39 36 36 39 38 35 33 35 32 31 29 25 20 17 14 11 8 8 9 8 11 13 14 17 20 24 30 32 44 50 48 47 53 53
44 36 34 31 25 38 37 34 32 33 34 33 30 29 29 27 24 20 15 12 9 8 7 7 7 8 8 9 10 9 8 8 8 7 9 17 24 34 43 58 65 65 60 60
23 24 27 21 22 25 26 27 28 26 27 26 24 21 20 17 14 11 9 8 8 8 10 10 11 12 13 13 13 12 10 9 8 8 7 7 11 18 29 44 60 71 74 73
17 19 19 17 18 20 23 24 23 24 23 20 18 14 13 12 10 8 8 9 11 12 13 14 15 16 17 18 15 12 10 10 9 8 7 8 9 12 32 32 50 69 79 84
16 18 18 16 19 16 16 16 15 15 14 14 12 10 9 9 9 10 11 13 14 16 17 19 21 22 23 19 14 12 12 11 10 10 15 19 24 30 30 53 65 73 86 86
8 11 13 12 12 14 12 12 12 10 11 10 8 9 9 11 12 13 15 17 19 20 21 22 24 25 21 17 14 13 13 13 13 20 35 41 51 57 64 64 62 64 80 92
5 6 6 10 10 10 9 10 9 9 9 9 8 11 12 13 15 18 20 20 21 22 24 26 26 22 18 15 15 16 15 16 28 46 57 64 67 69 67 68 68 64 62 75
5 5 5 5 6 6 7 8 8 8 8 9 11 13 13 15 18 22 22 23 24 25 26 26 22 17 16 18 18 18 18 28 45 61 74 82 83 80 77 74 71 68 63 68
4 5 5 6 6 7 7 7 7 8 8 10 11 11 14 17 23 24 25 25 26 27 25 20 18 18 20 20 19 20 21 29 49 66 78 79 78 82 83 79 78 80 70 52
6 6 7 7 7 7 8 8 8 8 9 10 10 11 16 22 26 27 26 26 26 23 19 19 21 22 23 22 22 22 23 22 27 37 48 61 76 85 89 89 83 79 83 61
6 5 5 5 5 6 7 8 9 9 9 9 9 14 21 28 29 28 26 24 22 21 22 24 26 26 26 25 27 27 23 23 26 30 48 72 89 95 95 95 91 85 84 85
6 6 6 6 7 8 9 10 11 10 10 9 12 20 29 31 28 26 24 23 23 25 28 29 30 30 29 30 32 28 26 28 28 31 47 72 86 89 92 93 94 87 85 88
6 6 7 8 9 10 12 14 13 12 11 14 20 30 32 28 25 24 24 26 28 29 28 27 26 29 33 36 34 28 32 34 32 28 32 37 42 69 87 93 92 89 86 90
7 8 9 10 13 15 16 16 15 15 17 22 33 33 28 24 24 26 27 27 26 21 16 16 21 28 36 40 32 34 42 45 46 34 31 36 66 90 92 94 94 91 90 92
9 9 12 13 13 15 17 18 18 21 27 36 34 28 25 26 26 26 23 17 10 9 11 14 20 28 38 44 35 43 54 65 72 53 34 49 85 95 97 96 97 99 97 94
9 13 12 11 13 17 20 22 26 32 38 34 27 25 27 28 27 18 9 6 8 14 18 19 21 25 36 47 39 50 64 74 81 82 48 45 86 96 96 95 98 100 97 96
12 12 11 12 15 21 26 30 38 40 34 28 27 27 28 23 13 6 7 14 18 19 22 26 29 28 30 47 45 54 72 80 79 81 84 56 76 95 96 96 96 96 96 96
14 14 14 16 23 29 35 42 41 33 29 30 29 27 19 9 6 10 16 16 16 16 17 18 20 32 34 38 49 55 76 83 83 82 86 78 73 92 96 96 96 97 97 97
16 17 19 26 33 42 44 40 33 30 30 30 26 16 7 7 12 15 16 16 16 17 18 20 23 25 38 41 50 56 76 84 87 86 87 94 81 86 95 96 95 95 98 100

GFSNGP_700_rhum_108.txt.gz
RH
73 70 74 70 64 58 48 58 61 68 74 74 72 68 64 64 63 62 60 58 55 54 55 53 50 48 46 44 43 40 39 38 38 37 37 36 35 33 32 31 29 28 29 30
57 56 69 69 65 58 53 55 58 64 69 70 66 64 62 61 62 60 59 59 60 57 49 42 38 36 34 34 34 34 32 31 29 28 28 28 27 26 26 25 26 27 29 30
48 54 54 56 63 56 56 54 50 56 58 63 61 60 59 60 61 61 63 62 55 46 42 39 36 33 33 30 27 23 21 19 17 15 14 13 14 14 14 13 15 15 17 17
50 58 64 48 68 66 63 62 62 61 54 56 56 55 58 60 62 64 63 54 47 44 41 37 30 23 21 21 19 17 15 10 7 6 6 6 6 6 6 6 6 6 6 7
58 62 46 42 48 64 68 60 64 63 53 55 57 57 55 55 54 55 50 49 48 41 28 21 23 21 17 16 10 7 6 7 8 9 9 10 10 11 11 11 10 10 9 8
54 59 64 40 38 44 57 59 49 50 50 49 52 50 47 54 54 48 46 42 25 26 26 23 21 18 7 6 6 7 8 9 9 10 12 13 14 14 14 14 14 14 13 12
57 54 33 37 44 42 52 30 30 37 43 46 42 45 47 45 44 44 31 25 23 22 14 13 9 7 7 7 9 10 11 14 15 15 16 16 17 17 17 17 17 16 14 13
67 65 45 32 41 42 33 29 32 35 36 37 43 44 42 40 33 28 24 22 17 12 9 8 9 10 12 14 14 15 17 17 18 20 20 20 19 18 17 16 16 15 13 11
38 36 31 32 33 31 32 32 36 32 29 33 35 35 32 28 26 23 19 18 12 10 10 10 11 14 16 17 18 19 20 21 22 22 19 17 17 17 17 16 16 16 15 13
28 21 24 26 30 27 24 33 36 31 28 29 30 28 25 21 17 15 12 11 10 10 11 13 16 17 18 20 22 22 21 19 18 17 17 18 18 18 18 18 17 16 17 18
20 14 16 15 15 18 19 19 28 28 28 26 25 21 18 17 14 12 10 10 11 12 13 16 18 20 21 21 20 19 17 16 16 17 16 17 18 18 19 19 20 20 20 22
15 19 15 13 13 12 11 13 19 19 18 18 17 18 16 14 13 12 10 12 13 14 18 21 22 22 21 20 18 16 16 17 17 16 15 15 15 17 20 20 22 25 35 42
12 19 22 18 17 13 10 13 15 15 14 13 13 12 12 12 12 11 12 14 14 17 21 24 24 23 20 19 17 17 18 18 17 15 13 12 14 18 18 20 22 29 38 57
18 18 11 12 12 19 14 12 13 14 12 12 12 11 11 12 12 13 14 14 16 20 24 26 25 22 19 18 18 18 18 17 13 10 11 13 17 20 20 20 20 20 45 59
11 12 9 9 14 16 15 13 10 11 12 13 13 14 14 15 14 14 13 12 16 22 27 28 24 22 20 20 20 19 16 10 7 8 10 14 18 22 24 25 25 25 26 48
16 10 11 9 9 13 14 12 11 14 15 17 16 16 17 16 15 15 12 12 17 25 30 27 24 21 20 20 19 14 7 6 7 9 13 19 23 25 27 26 27 28 28 40
10 10 11 11 7 8 10 16 18 22 24 19 20 19 15 15 15 15 11 12 20 30 31 25 22 21 21 20 12 5 6 9 11 12 14 20 25 28 30 36 34 29 25 26
9 8 12 9 12 13 10 11 15 21 21 24 22 18 18 18 18 13 11 14 26 32 29 23 22 22 21 12 5 6 10 13 14 15 18 26 30 33 39 42 33 24 25 41
8 7 10 9 9 11 12 13 11 13 16 17 19 22 21 19 17 12 12 21 33 32 25 23 23 21 10 5 8 12 14 16 17 18 24 32 35 40 50 52 34 34 56 72
9 6 11 12 7 7 8 13 16 13 14 16 18 19 21 20 15 13 19 33 35 26 24 24 21 10 5 8 12 14 15 16 18 21 30 36 40 46 56 59 47 46 68 78
8 8 7 14 12 9 8 9 11 14 18 20 21 23 23 18 16 19 34 37 30 26 26 23 11 6 9 12 13 14 15 16 20 23 34 40 47 56 61 62 58 59 77 81
8 8 8 8 13 16 18 18 18 17 19 21 24 25 23 19 22 36 39 32 28 28 24 12 6 9 12 14 15 16 16 17 19 24 37 45 56 63 63 63 62 70 82 86
25 7 8 8 9 14 18 23 24 21 22 25 26 24 22 25 38 41 33 29 29 25 13 7 9 12 14 15 16 17 17 18 20 24 38 50 65 71 66 67 67 76 85 87
11 8 8 9 10 14 24 25 23 24 27 28 26 25 30 42 42 34 30 39 59 32 8 9 12 15 15 16 17 19 20 20 21 26 38 53 73 81 74 72 72 81 88 90
45 15 12 10 12 18 24 32 35 34 33 29 28 36 46 57 78 49 51 89 77 17 8 13 16 16 17 18 19 21 22 22 22 26 39 55 82 88 83 78 77 82 91 93
59 45 20 16 16 18 25 36 42 41 34 33 39 56 82 85 47 45 86 94 48 12 13 16 17 16 18 19 20 23 24 23 23 28 40 55 86 92 90 86 83 82 90 88
66 41 27 26 26 31 43 49 46 43 40 42 51 74 88 77 56 77 94 91 27 14 18 19 16 16 17 18 22 25 25 24 24 28 41 57 79 96 95 93 89 84 93 95